Home > Weather > Sanandaj > Past weeks

Flag for Iran Past Weather in Sanandaj, Iran — Yesterday and Last 2 Weeks

Now
68 °F

Clear.


Feels Like: 68 °F
Forecast: 59 / 96 °F
Wind: No wind

Location: Sanandaj Airport

Current Time: Jul 1, 2016 at 3:41:37 AM

Latest Report: Jul 1, 2016 at 2:26 AM


Visibility: 10 mi

Pressure: 29.92 "Hg (25.11 "Hg at 1502m altitude)

Humidity: 28%

Dew Point: 34 °F

Location of SanandajLocation

Past Weather in Sanandaj — Graph

°F

Sanandaj Temperature Yesterday

Maximum temperature yesterday: 99 °F (at 3:30 PM)
Minimum temperature yesterday: 59 °F (at 6:24 AM)
Average temperature yesterday: 82 °F

High & Low Weather Summary for the Past Weeks

 TemperatureHumidityPressure
High99 °F (Jun 21, 5:30 PM)56% (Jun 26, 6:30 AM)30.07 "Hg (Jun 26, 6:30 AM)
Low52 °F (Jun 16, 6:30 AM)6% (Jun 29, 4:30 PM)29.71 "Hg (Jun 16, 2:30 PM)
Average81 °F23%29.92 "Hg
* Reported Jun 16 1:23 AM — Jul 1 1:25 AM, Sanandaj, Weather by CustomWeather, © 2016

Note: Actual official high and low records may vary slightly from our data, if they occured in-between our weather recording intervals... More about our weather records

Advertising

Sanandaj Weather History for the Previous 24 Hours

Scroll right to see more
 ConditionsComfort  
Time TempWeatherWind HumidityBarometerVisibility
1:25 AM
Fri, Jul 1
70 °FClear.No wind27%29.92 "Hg10 mi
12:27 AM73 °FClear.No wind22%29.95 "Hg10 mi
11:26 PM
Thu, Jun 30
75 °FClear.No wind25%29.95 "Hg10 mi
10:23 PM82 °FClear.2 mph16%29.92 "Hg10 mi
9:25 PM86 °FSunny.5 mph12%29.92 "Hg10 mi
8:23 PM91 °FSunny.9 mph9%29.89 "Hg10 mi
7:23 PM95 °FSunny.12 mph8%29.89 "Hg10 mi
6:22 PM99 °FSunny.9 mph9%29.89 "Hg10 mi
5:30 PM99 °FSunny.7 mph9%29.89 "Hg10 mi
4:20 PM99 °FSunny.7 mph8%29.92 "Hg10 mi
3:30 PM99 °FSunny.7 mph9%29.92 "Hg10 mi
2:30 PM97 °FSunny.7 mph9%29.95 "Hg10 mi
1:30 PM95 °FSunny.9 mph9%29.98 "Hg10 mi
1:00 PM95 °FSunny.9 mph9%29.98 "Hg10 mi
12:30 PM93 °FSunny.7 mph10%29.98 "Hg10 mi
12:00 PM93 °FSunny.2 mph11%30.01 "Hg10 mi
11:30 AM88 °FSunny.5 mph13%30.01 "Hg10 mi
11:00 AM86 °FSunny.5 mph14%30.01 "Hg10 mi
10:30 AM84 °FSunny.No wind16%30.04 "Hg10 mi
10:00 AM82 °FSunny.No wind17%30.04 "Hg10 mi
9:30 AM79 °FSunny.No wind20%30.04 "Hg10 mi
9:00 AM75 °FSmoke.2 mph25%30.04 "HgN/A
8:30 AM70 °FSunny.No wind33%30.04 "Hg10 mi
7:30 AM61 °FClear.No wind42%30.01 "Hg10 mi
6:24 AM59 °FClear.No wind45%30.01 "Hg10 mi
5:23 AM61 °FClear.2 mph45%30.01 "Hg10 mi
4:30 AM63 °FClear.2 mph37%29.98 "Hg10 mi
3:22 AM66 °FClear.5 mph35%29.98 "Hg10 mi
Weather by CustomWeather, © 2016

See weather overviewHow to use our weather pages